[Date Prev][Date Next][Thread Prev][Thread Next] - [Date Index][Thread Index][Author Index]

2 Line ISS Keps 1-3



ISS
1 25544U 98067A   04003.15504532  .00021853  00000-0  21154-3 0  9638
2 25544  51.6300  90.5057 0006609 335.7539 106.2651 15.66313288292275


----
Via the sarex mailing list at AMSAT.ORG courtesy of AMSAT-NA.
To unsubscribe, send "unsubscribe sarex" to Majordomo@amsat.org



AMSAT Top AMSAT Home